Regional Weather Roundup
Issued by NWS

Home | Current Version | Previous Version | Text Only | Print | Product List | Glossary On
Versions: 1 2 3 4 5 6 7 8 9 10 11 12 13 14 15 16 17 18 19 20 21 22 23 24 25 26 27 28 29 30 31 32 33 34 35 36 37 38 39 40 41 42 43 44 45 46 47 48 49 50
122
ASUS44 KJAN 252110
RWRMS

MISSISSIPPI HOURLY WEATHER ROUNDUP
NATIONAL WEATHER SERVICE JACKSON MS
400 PM CDT WED MAY 25 2016

NOTE: "FAIR: INDICATES FEW OR NO CLOUDS BELOW 12,000 FEET WITH NO
SIGNIFICANT WEATHER AND/OR OBSTRUCTIONS TO VISIBILITY.

MSZ001>002-007>008-010>013-018>021-025>028-034>036-252200-
NORTHWEST MISSISSIPPI

CITY           SKY/WX    TMP DP  RH WIND       PRES   REMARKS
BATESVILLE     FAIR      87  67  52 S12       30.06F
CLARKSDALE     MOSUNNY   88  70  55 SW7       30.05F HX  92
CLEVELAND      CLOUDY    87  69  54 S12G18    30.04F HX  91
GREENWOOD      MOSUNNY   87  65  47 S13G21    30.06F
GREENVILLE     PTSUNNY   87  69  54 S14       30.04F HX  91
OLIVE BRANCH   TSTM      70  70 100 N14G23    30.11R VSB 1
OXFORD         FAIR      84  66  54 S8G16     30.09S
TUNICA         MOCLDY    79  70  73 NW12      30.08R
WINONA         MOCLDY    86  66  51 S8        30.08F
$$

MSZ003>006-009-014>017-022>024-029>033-037>039-252200-
NORTHEAST MISSISSIPPI

CITY           SKY/WX    TMP DP  RH WIND       PRES   REMARKS
COLUMBUS AFB   PTSUNNY   88  63  43 S10       30.09F
CORINTH        FAIR      86  57  37 SE12      30.07S
GOLDN TRIANGLE MOSUNNY   88  59  37 S12G18    30.10F
STARKVILLE     FAIR      86  64  48 S8        30.08F
TUPELO         PTSUNNY   86  58  38 S10       30.08F
$$

MSZ040-058-252200-
CENTRAL MISSISSIPPI

CITY           SKY/WX    TMP DP  RH WIND       PRES   REMARKS
JACKSON INTL   PTSUNNY   88  66  48 SW10      30.09F HX  90
JACKSON HAWKNS PTSUNNY   86  66  51 S9        30.09F
MADISON        FAIR      86  66  51 S5        30.09F
MERIDIAN KEY   MOSUNNY   89  64  43 S9        30.11F HX  90
MERIDIAN NAS   PTSUNNY   89  59  36 S8        30.12F
VICKSBURG TVR  MOSUNNY   90  68  48 S13       30.07  HX  94
VICKSBURG VKS  PTCLDY    90  68  48 S10       30.07F HX  93
$$

MSZ059>079-252200-
SOUTH MISSISSIPPI

CITY           SKY/WX    TMP DP  RH WIND       PRES   REMARKS
BROOKHAVEN     FAIR     N/A N/A N/A S10       30.11F
COLUMBIA       FAIR      88  70  55 S9        30.14F HX  92
HATTIESBURG    MOSUNNY   88  68  51 S15       30.11F HX  91
MCCOMB         MOSUNNY   88  68  51 SE8       30.10F HX  91
NATCHEZ        MOSUNNY   90  72  55 S10       30.07F HX  96
PINE BELT      MOSUNNY   88  66  48 S7        30.13F HX  90
$$

MSZ080>082-252200-
COASTAL MISSISSIPPI

CITY           SKY/WX    TMP DP  RH WIND       PRES   REMARKS
BAY ST LOUIS   PTSUNNY   82  66  57 SE14      30.14F
BILOXI         SUNNY     83  69  63 SE12      30.14F
PASCAGOULA     SUNNY     83  65  54 SE9       30.16F
GULFPORT       SUNNY     83  67  58 SE15      30.14F
$$




USA.gov is the U.S. government's official web portal to all federal, state and local government web resources and services.